Location: Santaluz Observatory
(32.9930°N, 117.1510°W)
Time: 08:21:01
(UTC-07:00)

Hubble Space Telescope - Visible Passes

Search period start: 26 May 2018 00:00
Search period end: 05 June 2018 00:00
Orbit: 537 x 541 km, 28.5° (Epoch: 25 May)

Date Brightness Start Highest point End Pass type
(mag) Time Alt. Az. Time Alt. Az. Time Alt. Az.
26 May 2.9 04:34:19 12° S 04:36:18 15° SSE 04:38:43 10° ESE visible
27 May 2.6 04:24:26 16° S 04:25:52 18° SSE 04:28:47 10° ESE visible
28 May 2.3 04:14:31 20° S 04:15:27 22° SSE 04:18:41 10° ESE visible
29 May 2.0 04:04:35 25° S 04:05:03 26° SSE 04:08:31 10° ESE visible
30 May 1.8 03:54:39 30° SSE 03:54:39 30° SSE 03:58:17 10° ESE visible
31 May 1.7 03:44:43 33° SSE 03:44:43 33° SSE 03:48:01 10° ESE visible
01 Jun 1.8 03:34:49 33° SE 03:34:49 33° SE 03:37:44 10° ESE visible
01 Jun 1.3 05:10:53 10° WSW 05:14:49 43° S 05:18:46 10° ESE visible
02 Jun 2.1 03:24:59 29° SE 03:24:59 29° SE 03:27:24 10° ESE visible
02 Jun 1.3 05:00:33 10° WSW 05:04:27 41° S 05:08:22 10° ESE visible
03 Jun 2.5 03:15:13 24° ESE 03:15:13 24° ESE 03:17:05 10° ESE visible
03 Jun 1.4 04:50:34 12° WSW 04:54:05 38° S 04:57:56 10° ESE visible
04 Jun 2.9 03:05:34 18° ESE 03:05:34 18° ESE 03:06:43 10° ESE visible
04 Jun 1.5 04:40:55 16° WSW 04:43:42 34° S 04:47:28 10° SE visible
